Voltar ao catálogo

NAVSTAR 81

USA 319

AtivoNavegaçãoHEO
NORAD 48859·PAYLOAD·🇺🇸 United States

Lançado Jun 17, 2021 de Cape Canaveral Space Force Station

Loading…

Próximas Passagens (próximas 24 horas)

TLE

AtualizadoSource: CelesTrak SupGP

Época: Sep 17, 2026, 16:38 UTC

1 48859C 21054A   26260.69312500  .00000000  00000+0  00000+0 0  2607
2 48859  55.1236 328.7384 0028606 230.8831  92.1902  2.00563825    15

Acompanhe NAVSTAR 81 em tempo real com AllMySat

Download on the App Store